TimeCDT,TemperatureF,Dew PointF,Humidity,Sea Level PressureIn,VisibilityMPH,Wind Direction,Wind SpeedMPH,Gust SpeedMPH,PrecipitationIn,Events,Conditions,WindDirDegrees,DateUTC
12:13 AM,12.2,5.0,73,29.93,10.0,NW,19.6,25.3,N/A,,Clear,310,2013-03-19 05:13:00
12:32 AM,12.2,5.0,73,29.94,10.0,NW,19.6,-,N/A,,Clear,320,2013-03-19 05:32:00
12:52 AM,12.2,3.2,67,29.94,10.0,NW,16.1,28.8,N/A,,Clear,310,2013-03-19 05:52:00
1:13 AM,12.2,3.2,67,29.93,10.0,NW,20.7,26.5,N/A,,Clear,310,2013-03-19 06:13:00
1:32 AM,12.2,3.2,67,29.93,10.0,NW,17.3,27.6,N/A,,Clear,310,2013-03-19 06:32:00
1:52 AM,12.2,3.2,67,29.94,10.0,NW,19.6,23.0,N/A,,Clear,310,2013-03-19 06:52:00
2:13 AM,12.2,3.2,67,29.94,10.0,NW,21.9,26.5,N/A,,Clear,320,2013-03-19 07:13:00
2:32 AM,12.2,3.2,67,29.96,10.0,WNW,17.3,24.2,N/A,,Clear,300,2013-03-19 07:32:00
2:52 AM,12.2,3.2,67,29.97,10.0,WNW,20.7,25.3,N/A,,Clear,300,2013-03-19 07:52:00
3:13 AM,12.2,3.2,67,29.98,10.0,WNW,16.1,26.5,N/A,,Clear,300,2013-03-19 08:13:00
3:32 AM,10.4,3.2,73,29.99,10.0,WNW,17.3,24.2,N/A,,Clear,300,2013-03-19 08:32:00
3:52 AM,10.4,3.2,73,29.99,10.0,WNW,16.1,-,N/A,,Clear,300,2013-03-19 08:52:00
4:13 AM,10.4,3.2,73,29.99,10.0,WNW,16.1,19.6,N/A,,Clear,300,2013-03-19 09:13:00
4:32 AM,10.4,3.2,73,29.99,10.0,WNW,15.0,-,N/A,,Clear,300,2013-03-19 09:32:00
4:52 AM,10.4,3.2,73,29.99,10.0,WNW,13.8,-,N/A,,Clear,300,2013-03-19 09:52:00
5:13 AM,10.4,3.2,73,29.99,10.0,NW,13.8,20.7,N/A,,Clear,310,2013-03-19 10:13:00
5:32 AM,10.4,3.2,73,30.00,10.0,WNW,12.7,-,N/A,,Clear,300,2013-03-19 10:32:00
5:52 AM,10.4,3.2,73,30.01,10.0,NW,12.7,-,N/A,,Clear,310,2013-03-19 10:52:00
6:13 AM,10.4,3.2,73,30.02,10.0,WNW,15.0,-,N/A,,Clear,300,2013-03-19 11:13:00
6:32 AM,10.4,3.2,73,30.01,10.0,NW,12.7,-,N/A,,Clear,310,2013-03-19 11:32:00
6:53 AM,10.4,3.2,73,30.01,10.0,NW,16.1,20.7,N/A,,Clear,310,2013-03-19 11:53:00
7:12 AM,10.4,3.2,73,30.03,10.0,NW,12.7,17.3,N/A,,Clear,310,2013-03-19 12:12:00
7:32 AM,10.4,1.4,67,30.05,10.0,NW,11.5,-,N/A,,Clear,310,2013-03-19 12:32:00
7:53 AM,10.4,3.2,73,30.06,10.0,WNW,11.5,17.3,N/A,,Clear,300,2013-03-19 12:53:00
8:13 AM,10.4,3.2,73,30.07,10.0,WNW,11.5,-,N/A,,Clear,300,2013-03-19 13:13:00
8:32 AM,12.2,3.2,67,30.09,10.0,WNW,15.0,18.4,N/A,,Clear,300,2013-03-19 13:32:00
8:53 AM,12.2,3.2,67,30.09,10.0,WNW,16.1,-,N/A,,Clear,300,2013-03-19 13:53:00
9:12 AM,14.0,3.2,62,30.09,10.0,NW,15.0,18.4,N/A,,Scattered Clouds,310,2013-03-19 14:12:00
9:33 AM,14.0,3.2,62,30.10,10.0,NW,15.0,23.0,N/A,,Scattered Clouds,310,2013-03-19 14:33:00
9:53 AM,15.8,5.0,62,30.09,10.0,NW,20.7,25.3,N/A,,Mostly Cloudy,320,2013-03-19 14:53:00
10:12 AM,15.8,3.2,58,30.09,10.0,NW,18.4,-,N/A,,Overcast,320,2013-03-19 15:12:00
10:33 AM,17.6,3.2,53,30.08,10.0,NNW,11.5,19.6,N/A,,Overcast,340,2013-03-19 15:33:00
10:53 AM,19.4,3.2,49,30.09,10.0,North,10.4,-,N/A,,Overcast,350,2013-03-19 15:53:00
11:12 AM,19.4,3.2,49,30.10,10.0,NNW,11.5,19.6,N/A,,Overcast,340,2013-03-19 16:12:00
11:33 AM,21.2,5.0,50,30.11,10.0,NNW,12.7,18.4,N/A,,Overcast,330,2013-03-19 16:33:00
11:52 AM,21.2,5.0,50,30.12,10.0,NNW,9.2,18.4,N/A,,Mostly Cloudy,340,2013-03-19 16:52:00
12:13 PM,21.2,5.0,50,30.12,10.0,NNW,9.2,16.1,N/A,,Mostly Cloudy,330,2013-03-19 17:13:00
12:33 PM,21.2,5.0,50,30.13,10.0,WNW,13.8,-,N/A,,Overcast,300,2013-03-19 17:33:00
12:52 PM,23.0,8.6,54,30.12,10.0,NW,12.7,18.4,N/A,,Mostly Cloudy,310,2013-03-19 17:52:00
1:12 PM,23.0,8.6,54,30.13,10.0,WNW,16.1,19.6,N/A,,Mostly Cloudy,300,2013-03-19 18:12:00
1:33 PM,23.0,8.6,54,30.13,10.0,WNW,13.8,19.6,N/A,,Overcast,300,2013-03-19 18:33:00
1:52 PM,23.0,10.4,59,30.13,10.0,WNW,12.7,-,N/A,,Overcast,290,2013-03-19 18:52:00
2:12 PM,24.8,10.4,54,30.13,10.0,WNW,12.7,20.7,N/A,,Overcast,300,2013-03-19 19:12:00
2:33 PM,24.8,12.2,59,30.13,10.0,West,16.1,20.7,N/A,,Overcast,280,2013-03-19 19:33:00
2:52 PM,26.6,12.2,55,30.12,10.0,WNW,13.8,-,N/A,,Overcast,290,2013-03-19 19:52:00
3:12 PM,26.6,14.0,59,30.12,10.0,West,15.0,21.9,N/A,,Overcast,280,2013-03-19 20:12:00
3:32 PM,26.6,14.0,59,30.12,10.0,West,15.0,-,N/A,,Overcast,280,2013-03-19 20:32:00
3:52 PM,26.6,15.8,64,30.12,10.0,WNW,12.7,-,N/A,,Overcast,290,2013-03-19 20:52:00
4:13 PM,28.4,15.8,59,30.13,10.0,WNW,18.4,23.0,N/A,,Scattered Clouds,300,2013-03-19 21:13:00
4:32 PM,28.4,15.8,59,30.14,10.0,NW,17.3,28.8,N/A,,Mostly Cloudy,310,2013-03-19 21:32:00
4:52 PM,26.6,15.8,64,30.15,10.0,NW,17.3,24.2,N/A,,Overcast,320,2013-03-19 21:52:00
5:13 PM,26.6,14.0,59,30.16,10.0,NW,17.3,24.2,N/A,,Overcast,320,2013-03-19 22:13:00
5:32 PM,26.6,14.0,59,30.17,10.0,NNW,17.3,23.0,N/A,,Overcast,330,2013-03-19 22:32:00
5:52 PM,23.0,14.0,68,30.19,10.0,NNW,19.6,26.5,N/A,Snow,Light Snow,330,2013-03-19 22:52:00
6:12 PM,23.0,14.0,68,30.19,10.0,NW,17.3,25.3,N/A,Snow,Light Snow,320,2013-03-19 23:12:00
6:32 PM,23.0,14.0,68,30.20,10.0,NW,19.6,23.0,N/A,Snow,Light Snow,320,2013-03-19 23:32:00
6:53 PM,21.2,14.0,74,30.21,10.0,NW,17.3,28.8,N/A,,Overcast,320,2013-03-19 23:53:00
7:12 PM,21.2,12.2,68,30.21,10.0,NNW,15.0,27.6,N/A,Snow,Light Snow,330,2013-03-20 00:12:00
7:33 PM,19.4,12.2,74,30.22,10.0,North,11.5,23.0,N/A,Snow,Light Snow,350,2013-03-20 00:33:00
7:53 PM,19.4,10.4,68,30.22,10.0,NNW,19.6,26.5,N/A,,Overcast,330,2013-03-20 00:53:00
8:12 PM,17.6,10.4,73,30.22,10.0,NNW,19.6,25.3,N/A,,Overcast,330,2013-03-20 01:12:00
8:33 PM,17.6,8.6,68,30.23,10.0,NNW,17.3,25.3,N/A,,Scattered Clouds,330,2013-03-20 01:33:00
8:53 PM,17.6,8.6,68,30.23,10.0,NW,18.4,27.6,N/A,,Clear,320,2013-03-20 01:53:00
9:12 PM,17.6,8.6,68,30.24,10.0,NW,17.3,24.2,N/A,,Clear,320,2013-03-20 02:12:00
9:33 PM,15.8,8.6,73,30.24,10.0,NW,15.0,-,N/A,,Scattered Clouds,320,2013-03-20 02:33:00
9:53 PM,15.8,8.6,73,30.24,10.0,NW,13.8,-,N/A,,Mostly Cloudy,320,2013-03-20 02:53:00
10:12 PM,15.8,10.4,79,30.24,10.0,NW,15.0,-,N/A,Snow,Light Snow,320,2013-03-20 03:12:00
10:33 PM,17.6,10.4,73,30.25,7.0,NW,17.3,23.0,N/A,Snow,Light Snow,310,2013-03-20 03:33:00
10:53 PM,17.6,8.6,68,30.25,7.0,NW,20.7,33.4,N/A,Snow,Light Snow,320,2013-03-20 03:53:00
11:12 PM,15.8,8.6,73,30.25,7.0,NW,16.1,31.1,N/A,Snow,Light Snow,310,2013-03-20 04:12:00
11:33 PM,15.8,8.6,73,30.26,10.0,NW,20.7,29.9,N/A,Snow,Light Snow,320,2013-03-20 04:33:00
11:52 PM,15.8,8.6,73,30.26,7.0,NW,16.1,25.3,N/A,Snow,Light Snow,310,2013-03-20 04:52:00